Regional Weather Roundup
Issued by NWS

Home | Current Version | Previous Version | Graphics & Text | Print | Product List | Glossary On
Versions: 1 2 3 4 5 6 7 8 9 10 11 12 13 14 15 16 17 18 19 20 21 22 23 24 25 26 27 28 29 30 31 32 33 34 35 36 37 38 39 40 41 42 43 44 45 46 47 48 49 50
000
ASUS45 KTFX 010910
RWRMT
MONTANA REGIONAL WEATHER ROUNDUP
NATIONAL WEATHER SERVICE GREAT FALLS MT
300 AM MDT WED JUL 01 2015

NOTE: "FAIR" INDICATES FEW OR NO CLOUDS BELOW 12000 FEET WITH NO
SIGNIFICANT WEATHER AND/OR OBSTRUCTIONS TO VISIBILITY.

MTZ001>007-043-011000-
WEST OF THE DIVIDE

CITY           SKY/WX    TMP DP  RH WIND       PRES   REMARKS
KALISPELL      SUNNY     56  49  77 CALM      30.02R
MISSOULA       CLEAR     63  46  54 CALM      30.06R
BUTTE          CLEAR     56  45  66 SE6       30.19S
MULLAN PASS    CLEAR     66  42  41 SW6       30.22S
DEER LODGE       N/A     55  45  67 CALM      30.17S
EUREKA           N/A     68  54  60 NW8G16    30.04R
HAMILTON         N/A     63  50  63 S6        30.08S
PLAINS           N/A     60  50  69 CALM      30.03R
RONAN            N/A     59  51  74 CALM      30.07S
THOMPSON FALLS   N/A     60  48  64 CALM      30.06S
$$

MTZ008-052>055-011000-
SOUTHWEST MONTANA

CITY           SKY/WX    TMP DP  RH WIND       PRES   REMARKS
BOZEMAN        PTCLDY    59  50  72 E5        30.10R
DILLON         CLEAR     60  45  57 S6        30.14S
W YELLOWSTONE  PTCLDY    50  48  93 CALM      30.25F
THREE FORKS      N/A     59   7  12 CALM      30.08R
TWIN BRIDGES     N/A     62  45  53 SE3       30.11R
$$

MTZ009-010-012-014-046-048-049-054-011000-
EAST SLOPES AND CENTRAL MONTANA

CITY           SKY/WX    TMP DP  RH WIND       PRES   REMARKS
CUT BANK       PTCLDY    57  53  86 W6        30.08S FOG
GREAT FALLS    CLEAR     58  51  78 NW7       30.06S
MALMSTROM AFB  CLEAR     63  53  69 SE2       30.06S
HELENA         CLEAR     69  48  47 W8        30.06F
CONRAD           N/A     54  54 100 CALM      30.09F
$$

MTZ011-013-016-021-045-047-050-051-011000-
NORTH CENTRAL MONTANA

CITY           SKY/WX    TMP DP  RH WIND       PRES   REMARKS
HAVRE          CLEAR     55  51  86 SW5       30.01S FOG
LEWISTOWN      CLEAR     57  50  77 SE6       30.09S
CHINOOK          N/A     59  55  88 W5        30.00R
FORT BENTON      N/A     63  54  72 CALM      30.03F
$$

MTZ017>020-022>027-061-062-011000-
NORTHEAST MONTANA

CITY           SKY/WX    TMP DP  RH WIND       PRES   REMARKS
JORDAN           N/A     63  55  75 W7        29.96R
SIDNEY         MOCLDY    66  59  77 CALM      29.93S
WOLF POINT     MOCLDY    64  59  83 NE9       29.94R HAZE
MALTA            N/A     61  54  77 CALM      29.95R
PLENTYWOOD       N/A     61  61 100 N6        29.98R
POPLAR           N/A     63  63 100 NE9       29.95R
SCOBEY           N/A     58  54  86 NE3       29.97S VSB 1
$$

MTZ028>42-056>058-011000-
SOUTHCENTRAL AND SOUTHEAST MONTANA

CITY           SKY/WX    TMP DP  RH WIND       PRES   REMARKS
BAKER          FOG       62  62 100 SE5       29.92S VSB 1/4
BILLINGS       CLEAR     73  47  39 S6        30.05F
LIVINGSTON     CLEAR     63  48  58 W6        30.11S
MILES CITY     CLEAR     67  54  63 W10       29.93R
EKALAKA          N/A     63  53  69 CALM      29.95S
FORSYTH          N/A     72  54  53 W7        29.97R
LAUREL           N/A     65  46  50 NW3       30.04S
ROUNDUP          N/A     65  49  56 SW6       29.97S
$$

REGIONAL REPORTS...DAKOTAS

CITY           SKY/WX    TMP DP  RH WIND       PRES   REMARKS
WILLISTON      MOCLDY    60  58  92 N8        29.95R FOG
MINOT          FOG       61  60  97 NW3       29.92S VSB 1/4
DICKINSON      CLOUDY    62  59  90 SE9       29.90S
BEACH          LGT RAIN  57  57 100 E5        29.93S
CROSBY         FOG       59  59 100 CALM      29.97S VSB<1/4
BISMARCK       CLEAR     61  59  93 SE3       29.90S
GRAND FORKS    PTCLDY    56  54  93 CALM      29.92S
FARGO          CLOUDY    64  60  87 CALM      29.92R
BUFFALO SD       N/A     60  58  92 W6        29.86R
RAPID CITY     CLEAR     64  63  96 NW3       29.92S
$$

REGIONAL REPORTS...WYOMING/IDAHO/WASHINGTON

CITY           SKY/WX    TMP DP  RH WIND       PRES   REMARKS
GILLETTE       CLEAR     62  49  62 CALM      30.06R
SHERIDAN       CLEAR     63  50  62 CALM      30.07R
BUFFALO WY     PTCLDY    68  44  42 NW12      30.13S
CODY           CLEAR     64  46  52 CALM      30.14S
YELLOWSTONE LA   N/A     49  45  86 CALM      30.35F
IDAHO FALLS    CLOUDY    60  57  89 CALM      30.10S
SALMON         CLEAR     64  52  63 CALM      30.07S
BOISE          CLEAR     74  54  49 SW5       29.97R
SPOKANE        CLEAR     74  46  36 SW8       29.97S
$$

REGIONAL REPORTS...ALBERTA

CITY           SKY/WX    TMP DP  RH WIND       PRES   REMARKS
EDMONTON       MOCLDY    64  57  77 NW5       29.97S
CALGARY        LGT RAIN  63  52  67 W28G39    30.09R
LETHBRIDGE     PTCLDY    59  57  94 SW5       30.04S FOG
WATERTON GATE    N/A     52  50  93 SW5         N/A
CARDSTON         N/A     57  57 100 E2          N/A
MILK RIVER       N/A     61  55  82 W7          N/A
ONEFOUR          N/A     55  52  88 W5          N/A
$$

REGIONAL REPORTS...SASKATCHEWAN

CITY           SKY/WX    TMP DP  RH WIND       PRES   REMARKS
SWIFT CURRENT  FOG       54 N/A N/A W6        30.01R VSB 1/2
REGINA         PTCLDY    54  54 100 VRB2      29.98S SMOKE
SASKATOON      CLEAR     55  55 100 SW6       29.95F SMOKE
CYPRESS HILLS    N/A     54  52  94 NE2         N/A
VAL MARIE        N/A     54  52  94 N3          N/A
ASSINIBOIA       N/A     64  61  88 CALM        N/A
$$


USA.gov is the U.S. government's official web portal to all federal, state and local government web resources and services.